Location: St. Louis
(38.6270°N, 90.1994°W)
Time: 08:55:59
(UTC-06:00)

Vanguard 2 Rocket - Pass Details

Date: 03 December 2021
Orbit: 553 x 3325 km, 32.9° (Epoch: 23 January)

Event Time Altitude Azimuth Distance (km) Brightness Sun altitude
Rises 02:37:23 0° 266° (W) 6,432 - -50.9°
Reaches altitude 10° 02:46:39 10° 239° (WSW) 5,967 - -49.1°
Maximum altitude 02:51:35 12° 223° (SW) 6,014 - -48.2°
Drops below altitude 10° 02:56:46 10° 208° (SSW) 6,254 - -47.2°
Exits shadow 02:59:48 - 199° (SSW) 6,470 11.0 -46.6°
Sets 03:07:42 0° 181° (S) 7,210 11.4 -45.0°
